Latest Coastal Weather Observations for Wilsons Promontory

IDT60701

Issued at 11:41 pm EST Tuesday 4 August 2015 (issued every 10 minutes, with the page automatically refreshed every 10 minutes)

About coastal observations | Map of coastal stations | Coastal observations for TAS | Marine services | Other Formats
Station Details ID: 085096 Name: WILSONS PROMONTORY LIGHTHOUSE Lat: -39.13 Lon: 146.42 Height: 95.0 m
Data from the previous 72 hours. | See also: Recent months at Wilsons Promontory
Date/Time
EST
Temp

°C
Wind Pressure Rain
since 9am
mm
Weather Cloud Vis
km
Sea
Height
m
Swell
Dir
 
Speed
knots
Gust
knots
hPa Trend Height
m
Period
s
Dir
04/11:32pm 8.5 WNW 15 33 1006.8 - 4.6 - - - - - - -
04/11:30pm 8.5 WNW 14 33 1007.0 - 4.6 - - - - - - -
04/11:25pm 8.5 WNW 15 33 1007.0 - 4.6 - - - - - - -
04/11:18pm 8.5 WSW 11 40 1007.1 - 4.6 - - - - - - -
04/11:03pm 8.4 W 20 39 1007.5 - 4.6 - - - - - - -
04/11:00pm 8.4 NW 8 39 1007.6 - 4.6 - - - - - - -
04/10:30pm 8.3 WNW 16 41 1007.9 - 4.6 - - - - - - -
04/10:01pm 8.0 NW 18 36 1008.5 - 4.6 - - - - - - -
04/10:00pm 8.0 NW 14 35 1008.7 - 4.6 - - - - - - -
04/09:35pm 7.6 WNW 18 49 1009.0 - 4.6 - - - - - - -
04/09:34pm 7.6 W 14 46 1009.3 - 4.6 - - - - - - -
04/09:30pm 7.5 NW 20 46 1009.1 - 4.6 - - - - - - -
04/09:26pm 7.4 NNW 17 46 1009.6 - 4.6 - - - - - - -
04/09:13pm 7.3 NW 15 32 1009.6 - 4.4 - - - - - - -
04/09:00pm 7.3 NNW 9 29 1010.1 - 3.6 - - - - - - -
04/08:30pm 7.6 WNW 8 20 1010.3 - 3.2 - - - - - - -
04/08:00pm 8.3 NW 9 27 1010.8 - 2.8 - - - - - - -
04/07:33pm 8.6 WNW 15 31 1010.8 - 2.6 - - - - - - -
04/07:30pm 8.4 ENE 7 33 1011.1 - 2.6 - - - - - - -
04/07:00pm 8.6 W 7 26 1011.4 - 2.4 - - - - - - -
04/06:57pm 8.6 N 8 32 1011.5 - 2.4 - - - - - - -
04/06:44pm 8.8 NW 21 38 1011.2 - 2.4 - - - - - - -
04/06:30pm 8.6 N 11 27 1011.6 - 2.4 - - - - - - -
04/06:09pm 8.8 W 17 30 1011.7 - 2.4 - - - - - - -
04/06:00pm 8.9 NW 12 34 1012.3 - 2.4 - - - - - - -
04/05:30pm 8.9 WNW 16 38 1012.5 - 2.4 - - - - - - -
04/05:00pm 8.7 WNW 16 42 1012.7 - 2.4 - - - - - - -
04/04:30pm 8.7 WNW 15 32 1013.1 - 2.4 - - - - - - -
04/04:21pm 8.7 W 16 33 1013.2 - 2.4 - - - - - - -
04/04:17pm 8.7 WNW 15 36 1013.3 - 2.4 - - - - - - -
04/04:04pm 8.8 WNW 30 40 1012.9 - 2.4 - - - - - - -
04/04:03pm 8.8 WNW 32 40 1012.7 - 2.4 - - - - - - -
04/04:00pm 8.8 W 20 36 1013.2 - 2.4 - - - - - - -
04/03:30pm 8.6 W 19 40 1014.0 - 2.4 - - - - - - -
04/03:00pm 8.5 WNW 23 40 1014.1 - 2.4 - - - - - - -
04/02:30pm 8.5 W 20 39 1014.5 - 2.4 - - - - - - -
04/02:00pm 7.8 W 24 37 1015.0 - 2.4 - - - - - - -
04/01:30pm 8.4 W 19 34 1015.4 - 2.2 - - - - - - -
04/01:00pm 8.0 W 20 37 1015.7 - 2.2 - - - - - - -
04/12:30pm 7.9 W 23 37 1016.5 - 2.2 - - - - - - -
04/12:00pm 8.1 W 18 31 1017.2 - 2.0 - - - - - - -
04/11:30am 7.5 W 23 38 1017.9 - 2.0 - - - - - - -
04/11:00am 8.1 W 19 33 1018.3 - 1.4 - - - - - - -
04/10:30am 8.0 W 20 32 1018.8 - 1.4 - - - - - - -
04/10:00am 7.0 W 18 29 1019.0 - 1.0 - - - - - - -
04/09:30am 7.5 WNW 16 28 1019.2 - 0.0 - - - - - - -
04/09:07am 6.9 WNW 17 27 1019.3 - 0.0 - - - - - - -
04/09:00am 6.9 WNW 18 23 1019.3 - 3.6 - - - - - - -
04/08:45am 6.8 W 17 28 1019.4 - 3.6 - - - - - - -
04/08:30am 6.6 WNW 11 18 1019.6 - 2.2 - - - - - - -
04/08:00am 6.7 W 15 26 1020.0 - 1.6 - - - - - - -
04/07:35am 7.5 W 16 26 1019.6 - 1.0 - - - - - - -
04/07:30am 7.4 W 17 26 1019.6 - 1.0 - - - - - - -
04/07:01am 8.0 W 19 30 1019.4 - 1.0 - - - - - - -
04/07:00am 8.2 W 19 28 1019.4 - 1.0 - - - - - - -
04/06:30am 7.7 W 19 29 1019.4 - 1.0 - - - - - - -
04/06:28am 7.7 W 19 29 1019.4 - 1.0 - - - - - - -
04/06:00am 7.3 W 17 25 1019.5 - 1.0 - - - - - - -
04/05:30am 7.5 W 16 26 1019.3 - 1.0 - - - - - - -
04/05:00am 7.4 W 13 21 1019.3 - 1.0 - - - - - - -
04/04:30am 7.2 W 14 20 1019.3 - 1.0 - - - - - - -
04/04:00am 7.8 WSW 17 24 1019.4 - 1.0 - - - - - - -
04/03:38am 7.6 W 15 26 1019.4 - 1.0 - - - - - - -
04/03:30am 7.2 W 11 22 1019.6 - 1.0 - - - - - - -
04/03:00am 7.0 W 14 23 1019.8 - 1.0 - - - - - - -
04/02:30am 7.1 W 15 26 1019.7 - 1.0 - - - - - - -
04/02:28am 7.1 W 15 25 1019.7 - 1.0 - - - - - - -
04/02:00am 6.3 W 17 26 1020.0 - 1.0 - - - - - - -
04/01:40am 6.7 W 15 28 1019.9 - 0.8 - - - - - - -
04/01:30am 6.8 W 16 24 1020.1 - 0.8 - - - - - - -
04/01:20am 6.5 WSW 19 35 1019.9 - 0.6 - - - - - - -
04/01:04am 7.1 WSW 31 36 1019.3 - 0.6 - - - - - - -
04/01:01am 7.6 W 15 32 1019.9 - 0.6 - - - - - - -
04/01:00am 7.6 W 15 24 1020.0 - 0.6 - - - - - - -
04/12:47am 7.7 W 15 25 1020.2 - 0.6 - - - - - - -
04/12:30am 6.9 SW 15 21 1020.3 - 0.6 - - - - - - -
04/12:00am 6.4 W 13 24 1020.8 - 0.6 - - - - - - -
 
Date/Time
EST
Temp

°C
Wind Pressure Rain
since 9am
mm
Weather Cloud Vis
km
Sea
Height
m
Swell
Dir
 
Speed
knots
Gust
knots
hPa Trend Height
m
Period
s
Dir
03/11:30pm 6.6 W 18 30 1020.1 - 0.4 - - - - - - -
03/11:26pm 7.0 W 15 25 1020.2 - 0.4 - - - - - - -
03/11:00pm 6.5 W 13 19 1020.5 - 0.4 - - - - - - -
03/10:35pm 6.4 W 22 32 1020.6 - 0.4 - - - - - - -
03/10:30pm 6.4 W 24 33 1020.4 - 0.4 - - - - - - -
03/10:14pm 6.1 WSW 29 39 1020.4 - 0.4 - - - - - - -
03/10:06pm 7.2 SW 33 39 1019.4 - 0.2 - - - - - - -
03/10:04pm 7.2 SW 16 37 1019.5 - 0.2 - - - - - - -
03/10:00pm 7.4 SW 29 37 1019.3 - 0.2 - - - - - - -
03/09:35pm 6.8 SW 25 45 1018.7 - 0.2 - - - - - - -
03/09:32pm 7.2 SW 40 45 1018.9 - 0.2 - - - - - - -
03/09:30pm 8.2 WSW 27 41 1019.4 - 0.2 - - - - - - -
03/09:06pm 8.3 WSW 31 41 1019.3 - 0.2 - - - - - - -
03/09:00pm 8.3 WSW 34 41 1019.1 - 0.2 - - - - - - -
03/08:55pm 8.4 WSW 29 36 1019.3 - 0.2 - - - - - - -
03/08:30pm 7.3 W 17 31 1019.6 - 0.2 - - - - - - -
03/08:28pm 7.3 W 16 27 1019.6 - 0.2 - - - - - - -
03/08:23pm 7.6 W 15 27 1019.7 - 0.2 - - - - - - -
03/08:16pm 6.8 SW 20 30 1019.6 - 0.2 - - - - - - -
03/08:07pm 6.7 WSW 17 27 1019.8 - 0.2 - - - - - - -
03/08:00pm 7.0 W 20 27 1019.8 - 0.2 - - - - - - -
03/07:47pm 6.6 W 21 36 1019.6 - 0.2 - - - - - - -
03/07:36pm 7.1 W 32 42 1018.9 - 0.0 - - - - - - -
03/07:30pm 7.7 WSW 35 42 1017.9 - 0.0 - - - - - - -
03/07:00pm 8.2 WSW 32 44 1017.7 - 0.0 - - - - - - -
03/06:47pm 8.1 WSW 31 41 1017.9 - 0.0 - - - - - - -
03/06:37pm 7.5 SW 33 55 1017.8 - 0.0 - - - - - - -
03/06:30pm 7.5 SW 48 55 1016.1 - 0.0 - - - - - - -
03/06:29pm 7.5 WSW 47 52 1016.3 - 0.0 - - - - - - -
03/06:27pm 8.1 WSW 31 47 1017.3 - 0.0 - - - - - - -
03/06:00pm 7.4 SW 35 43 1017.1 - 0.0 - - - - - - -
03/05:43pm 7.0 SW 35 52 1017.0 - 0.0 - - - - - - -
03/05:38pm 7.3 SW 47 52 1015.5 - 0.0 - - - - - - -
03/05:35pm 7.6 SW 36 48 1016.3 - 0.0 - - - - - - -
03/05:30pm 7.6 WSW 34 41 1016.6 - 0.0 - - - - - - -
03/05:23pm 7.7 WSW 31 41 1016.6 - 0.0 - - - - - - -
03/05:02pm 7.2 SW 35 49 1015.6 - 0.0 - - - - - - -
03/05:00pm 8.0 WSW 31 48 1015.8 - 0.0 - - - - - - -
03/04:55pm 8.0 WSW 32 42 1016.1 - 0.0 - - - - - - -
03/04:54pm 8.0 WSW 33 42 1015.9 - 0.0 - - - - - - -
03/04:47pm 7.9 W 22 38 1016.4 - 0.0 - - - - - - -
03/04:30pm 7.0 W 22 37 1016.6 - 0.0 - - - - - - -
03/04:27pm 7.0 W 22 43 1016.3 - 0.0 - - - - - - -
03/04:12pm 7.8 WSW 37 47 1015.0 - 0.0 - - - - - - -
03/04:00pm 7.6 WSW 36 44 1015.1 - 0.0 - - - - - - -
03/03:45pm 6.0 SW 39 52 1015.0 - 0.0 - - - - - - -
03/03:43pm 6.1 SW 44 52 1014.4 - 0.0 - - - - - - -
03/03:30pm 6.0 SW 32 42 1015.6 - 0.0 - - - - - - -
03/03:29pm 5.8 SW 32 42 1015.5 - 0.0 - - - - - - -
03/03:22pm 5.7 SW 40 42 1014.8 - 0.0 - - - - - - -
03/03:09pm 6.7 W 26 40 1015.0 - 0.0 - - - - - - -
03/03:00pm 6.9 WSW 28 34 1015.2 - 0.0 - - - - - - -
03/02:36pm 6.1 W 32 53 1014.6 - 0.0 - - - - - - -
03/02:34pm 6.4 W 34 55 1014.3 - 0.0 - - - - - - -
03/02:30pm 6.3 SW 44 55 1013.4 - 0.0 - - - - - - -
03/02:01pm 7.6 WSW 44 54 1013.1 - 0.0 - - - - - - -
03/02:00pm 7.6 WSW 45 54 1013.2 - 0.0 - - - - - - -
03/01:55pm 7.7 WSW 48 54 1012.4 - 0.0 - - - - - - -
03/01:49pm 7.9 WSW 35 51 1013.2 - 0.0 - - - - - - -
03/01:41pm 7.3 WSW 47 57 1012.4 - 0.0 - - - - - - -
03/01:35pm 6.8 SW 51 56 1011.8 - 0.0 - - - - - - -
03/01:30pm 8.0 WSW 39 52 1012.8 - 0.0 - - - - - - -
03/01:23pm 7.7 WSW 41 57 1012.9 - 0.0 - - - - - - -
03/01:22pm 7.5 WSW 46 59 1012.5 - 0.0 - - - - - - -
03/01:17pm 7.6 W 33 59 1012.5 - 0.0 - - - - - - -
03/01:13pm 7.5 WSW 49 59 1011.6 - 0.0 - - - - - - -
03/01:09pm 7.0 WSW 36 62 1012.4 - 0.0 - - - - - - -
03/01:05pm 6.4 WSW 35 63 1012.8 - 0.0 - - - - - - -
03/01:00pm 6.0 SW 51 63 1011.2 - 0.0 - - - - - - -
03/12:52pm 7.5 SW 49 59 1011.9 - 0.0 - - - - - - -
03/12:30pm 7.2 SW 53 61 1010.8 - 0.0 - - - - - - -
03/12:25pm 7.4 SW 51 61 1010.9 - 0.0 - - - - - - -
03/12:18pm 6.8 SW 50 57 1011.0 - 0.0 - - - - - - -
03/12:00pm 6.6 SW 37 49 1011.7 - 0.0 - - - - - - -
03/11:59am 6.5 SW 39 49 1011.6 - 0.0 - - - - - - -
03/11:58am 6.4 SW 42 49 1011.6 - 0.0 - - - - - - -
03/11:53am 6.2 SSW 29 59 1010.9 - 0.0 - - - - - - -
03/11:50am 6.7 W 21 65 1010.6 - 0.0 - - - - - - -
03/11:48am 7.4 WSW 40 65 1011.2 - 0.0 - - - - - - -
03/11:46am 8.0 SW 55 65 1011.1 - 0.0 - - - - - - -
03/11:41am 7.9 WSW 56 65 1010.1 - 0.0 - - - - - - -
03/11:30am 7.9 W 36 50 1011.2 - 0.0 - - - - - - -
03/11:00am 7.1 W 35 47 1011.2 - 0.0 - - - - - - -
03/10:43am 7.0 W 40 64 1010.5 - 0.0 - - - - - - -
03/10:39am 6.8 WSW 53 71 1009.6 - 0.0 - - - - - - -
03/10:36am 6.5 WSW 55 71 1009.4 - 0.0 - - - - - - -
03/10:30am 6.4 SW 66 79 1008.3 - 0.0 - - - - - - -
03/10:27am 6.7 SW 68 79 1007.7 - 0.0 - - - - - - -
03/10:24am 6.4 SW 71 79 1006.9 - 0.0 - - - - - - -
03/10:22am 6.9 W 43 72 1008.4 - 0.0 - - - - - - -
03/10:13am 7.6 WSW 47 59 1009.0 - 0.0 - - - - - - -
03/10:00am 7.4 W 35 56 1009.9 - 0.0 - - - - - - -
03/09:55am 7.5 W 34 60 1010.3 - 0.0 - - - - - - -
03/09:49am 7.4 W 34 61 1010.1 - 0.0 - - - - - - -
03/09:46am 7.3 WSW 50 61 1008.5 - 0.0 - - - - - - -
03/09:30am 6.5 W 36 57 1009.4 - 0.0 - - - - - - -
03/09:21am 6.0 W 38 69 1009.4 - 0.0 - - - - - - -
03/09:19am 5.6 W 38 76 1009.2 - 0.0 - - - - - - -
03/09:14am 5.2 WSW 52 76 1008.1 - 0.0 - - - - - - -
03/09:12am 5.2 WSW 66 76 1007.0 - 0.0 - - - - - - -
03/09:09am 5.8 WSW 66 75 1006.5 - 0.0 - - - - - - -
03/09:08am 6.4 WSW 50 75 1006.9 - 0.0 - - - - - - -
03/09:06am 6.7 W 43 64 1008.5 - 0.0 - - - - - - -
03/09:01am 6.3 SW 54 65 1008.0 - 0.0 - - - - - - -
03/09:00am 6.2 SW 55 65 1008.1 - 16.4 - - - - - - -
03/08:59am 6.4 SW 54 65 1008.2 - 16.4 - - - - - - -
03/08:55am 6.2 SW 52 75 1007.6 - 16.4 - - - - - - -
03/08:49am 5.6 SW 65 75 1006.7 - 16.4 - - - - - - -
03/08:47am 5.8 SW 66 75 1005.5 - 16.4 - - - - - - -
03/08:46am 6.0 SW 54 75 1006.1 - 16.4 - - - - - - -
03/08:45am 6.4 SW 52 64 1007.0 - 16.4 - - - - - - -
03/08:42am 6.2 SW 55 61 1007.1 - 16.4 - - - - - - -
03/08:30am 6.9 WSW 38 57 1008.5 - 16.4 - - - - - - -
03/08:23am 6.7 WSW 45 57 1008.3 - 16.4 - - - - - - -
03/08:21am 6.8 WSW 50 57 1007.6 - 16.4 - - - - - - -
03/08:15am 6.6 W 35 61 1008.5 - 16.4 - - - - - - -
03/08:13am 6.2 W 37 63 1008.1 - 16.4 - - - - - - -
03/08:11am 6.4 WSW 53 63 1007.5 - 16.4 - - - - - - -
03/08:05am 5.9 SW 58 63 1006.6 - 16.4 - - - - - - -
03/08:00am 6.7 WSW 48 65 1007.1 - 16.4 - - - - - - -
03/07:42am 7.0 WSW 49 60 1006.8 - 16.4 - - - - - - -
03/07:40am 6.8 SW 53 60 1006.1 - 16.4 - - - - - - -
03/07:33am 7.1 W 37 61 1006.5 - 16.4 - - - - - - -
03/07:32am 7.3 W 34 64 1006.6 - 16.4 - - - - - - -
03/07:30am 7.2 W 45 64 1006.5 - 16.4 - - - - - - -
03/07:00am 7.8 WSW 52 64 1004.6 - 16.4 - - - - - - -
03/06:50am 7.5 SW 56 67 1004.1 - 16.4 - - - - - - -
03/06:46am 7.5 W 44 61 1005.6 - 16.4 - - - - - - -
03/06:30am 7.0 W 50 68 1003.4 - 16.4 - - - - - - -
03/06:28am 7.0 W 48 64 1003.9 - 16.4 - - - - - - -
03/06:17am 5.6 W 36 70 1005.5 - 16.4 - - - - - - -
03/06:15am 5.3 W 50 70 1004.8 - 16.4 - - - - - - -
03/06:12am 6.5 W 52 70 1002.6 - 16.0 - - - - - - -
03/06:00am 8.0 W 34 48 1004.7 - 16.0 - - - - - - -
03/05:30am 7.4 W 35 51 1004.4 - 16.0 - - - - - - -
03/05:23am 7.0 W 34 49 1005.1 - 16.0 - - - - - - -
03/05:12am 6.4 W 44 71 1004.1 - 16.0 - - - - - - -
03/05:03am 6.5 WSW 60 71 1001.9 - 16.0 - - - - - - -
03/05:01am 6.8 SW 61 68 1002.2 - 16.0 - - - - - - -
03/05:00am 6.8 W 41 67 1002.2 - 16.0 - - - - - - -
03/04:46am 7.4 W 36 59 1002.9 - 16.0 - - - - - - -
03/04:30am 7.5 W 34 45 1004.2 - 16.0 - - - - - - -
03/04:10am 7.0 W 39 62 1003.4 - 16.0 - - - - - - -
03/04:08am 6.8 W 41 67 1002.9 - 16.0 - - - - - - -
03/04:00am 6.4 WSW 52 67 1002.0 - 16.0 - - - - - - -
03/03:30am 7.6 W 38 55 1002.7 - 15.8 - - - - - - -
03/03:00am 8.4 W 39 66 1002.6 - 15.2 - - - - - - -
03/02:59am 8.6 W 39 66 1002.6 - 15.2 - - - - - - -
03/02:58am 9.2 W 36 48 1003.2 - 15.2 - - - - - - -
03/02:50am 8.7 W 21 47 1004.1 - 15.2 - - - - - - -
03/02:30am 8.5 W 34 49 1003.6 - 15.2 - - - - - - -
03/02:10am 7.5 W 38 50 1003.5 - 15.0 - - - - - - -
03/02:00am 7.4 W 27 62 1004.6 - 15.0 - - - - - - -
03/01:58am 7.5 W 32 62 1004.0 - 15.0 - - - - - - -
03/01:56am 7.9 W 45 62 1003.4 - 15.0 - - - - - - -
03/01:40am 7.5 W 42 53 1003.5 - 14.6 - - - - - - -
03/01:30am 8.3 W 28 49 1004.1 - 13.8 - - - - - - -
03/01:18am 7.7 W 25 53 1004.4 - 13.6 - - - - - - -
03/01:00am 8.3 W 37 57 1003.7 - 13.2 - - - - - - -
03/12:45am 7.9 W 33 74 1004.1 - 13.2 - - - - - - -
03/12:38am 7.7 W 50 67 1003.0 - 13.0 - - - - - - -
03/12:30am 7.9 W 39 59 1004.0 - 12.6 - - - - - - -
03/12:26am 7.7 W 43 59 1003.1 - 12.6 - - - - - - -
03/12:07am 8.4 W 29 53 1003.8 - 11.8 - - - - - - -
03/12:00am 8.4 W 26 40 1004.1 - 11.6 - - - - - - -
 
Date/Time
EST
Temp

°C
Wind Pressure Rain
since 9am
mm
Weather Cloud Vis
km
Sea
Height
m
Swell
Dir
 
Speed
knots
Gust
knots
hPa Trend Height
m
Period
s
Dir
02/11:59pm 8.4 W 26 40 1003.8 - 11.4 - - - - - - -
02/11:47pm 8.6 WNW 21 46 1004.5 - 9.4 - - - - - - -
02/11:38pm 8.9 WNW 17 32 1004.6 - 8.6 - - - - - - -
02/11:30pm 8.8 WNW 12 29 1004.7 - 8.4 - - - - - - -
02/11:02pm 8.8 NNW 9 50 1005.3 - 8.4 - - - - - - -
02/11:00pm 8.8 WNW 21 50 1004.9 - 8.4 - - - - - - -
02/10:30pm 8.9 W 26 43 1005.3 - 7.6 - - - - - - -
02/10:12pm 8.0 W 29 58 1004.8 - 7.6 - - - - - - -
02/10:00pm 7.9 W 46 74 1004.6 - 6.8 - - - - - - -
02/09:58pm 8.7 W 49 74 1003.8 - 5.8 - - - - - - -
02/09:57pm 9.4 W 28 74 1003.9 - 5.6 - - - - - - -
02/09:30pm 10.0 W 24 41 1005.6 - 5.6 - - - - - - -
02/09:00pm 9.8 W 28 38 1005.8 - 5.6 - - - - - - -
02/08:47pm 9.4 W 17 37 1006.2 - 5.6 - - - - - - -
02/08:30pm 9.4 W 31 43 1005.8 - 5.6 - - - - - - -
02/08:11pm 9.2 W 36 50 1005.2 - 5.6 - - - - - - -
02/08:10pm 9.5 W 22 50 1005.0 - 5.6 - - - - - - -
02/08:00pm 9.5 W 22 32 1006.1 - 5.6 - - - - - - -
02/07:42pm 9.2 W 27 46 1005.8 - 5.6 - - - - - - -
02/07:30pm 8.8 W 23 34 1006.1 - 5.6 - - - - - - -
02/07:16pm 8.2 W 23 50 1006.1 - 5.6 - - - - - - -
02/07:00pm 8.0 W 35 51 1005.7 - 5.2 - - - - - - -
02/06:30pm 7.7 W 30 41 1005.7 - 5.0 - - - - - - -
02/06:07pm 8.6 W 33 43 1005.3 - 4.2 - - - - - - -
02/06:00pm 8.5 W 19 31 1005.9 - 4.0 - - - - - - -
02/05:30pm 8.3 W 24 35 1005.7 - 3.8 - - - - - - -
02/05:06pm 8.3 W 22 35 1005.5 - 3.6 - - - - - - -
02/05:00pm 8.4 W 22 31 1005.5 - 3.6 - - - - - - -
02/04:51pm 8.2 W 22 37 1005.5 - 3.6 - - - - - - -
02/04:34pm 8.3 W 33 43 1004.9 - 3.6 - - - - - - -
02/04:30pm 8.2 W 35 43 1004.7 - 3.6 - - - - - - -
02/04:29pm 8.3 W 35 43 1004.6 - 3.6 - - - - - - -
02/04:04pm 8.6 W 21 40 1005.2 - 3.2 - - - - - - -
02/04:00pm 8.4 W 32 42 1004.8 - 3.2 - - - - - - -
02/03:30pm 8.5 W 33 64 1004.0 - 2.4 - - - - - - -
02/03:28pm 8.4 W 35 64 1003.7 - 2.4 - - - - - - -
02/03:25pm 8.0 W 48 64 1003.9 - 2.0 - - - - - - -
02/03:24pm 7.9 W 53 64 1002.6 - 1.4 - - - - - - -
02/03:22pm 9.1 W 39 64 1002.6 - 0.8 - - - - - - -
02/03:00pm 11.0 WNW 22 41 1003.5 - 0.0 - - - - - - -
02/02:30pm 10.9 WNW 23 45 1003.8 - 0.0 - - - - - - -
02/02:06pm 10.7 WNW 24 49 1004.0 - 0.0 - - - - - - -
02/02:00pm 10.7 WNW 36 49 1003.5 - 0.0 - - - - - - -
02/01:30pm 10.5 W 22 47 1004.2 - 0.0 - - - - - - -
02/12:30pm 10.3 WNW 23 45 1005.2 - 0.0 - - - - - - -
02/12:15pm 10.0 WNW 24 48 1005.0 - 0.0 - - - - - - -
02/12:13pm 10.0 WNW 36 48 1004.6 - 0.0 - - - - - - -
02/12:01pm 10.1 WNW 20 52 1005.8 - 0.0 - - - - - - -
02/12:00pm 10.0 WNW 32 52 1005.6 - 0.0 - - - - - - -
02/11:49am 9.8 WNW 40 56 1005.2 - 0.0 - - - - - - -
02/11:30am 9.8 WNW 29 52 1006.3 - 0.0 - - - - - - -
02/11:28am 9.7 WNW 33 52 1006.0 - 0.0 - - - - - - -
02/11:24am 9.7 WNW 21 52 1006.8 - 0.0 - - - - - - -
02/11:22am 9.5 WNW 38 52 1005.8 - 0.0 - - - - - - -
02/11:00am 9.2 WNW 24 50 1006.9 - 0.0 - - - - - - -
02/10:30am 9.0 WNW 26 52 1007.9 - 0.0 - - - - - - -
02/10:21am 8.9 W 22 52 1007.4 - 0.0 - - - - - - -
02/10:10am 8.7 W 23 33 1007.8 - 0.0 - - - - - - -
02/10:00am 8.5 NW 15 32 1008.1 - 0.0 - - - - - - -
02/09:49am 8.4 W 17 30 1008.3 - 0.0 - - - - - - -
02/09:30am 8.6 NNW 9 19 1008.6 - 0.0 - - - - - - -
02/09:00am 8.4 NNW 9 19 1009.1 - 0.6 - - - - - - -
02/08:30am 7.9 NNW 10 25 1009.6 - 0.6 - - - - - - -
02/08:23am 7.9 WNW 15 26 1009.5 - 0.6 - - - - - - -
02/08:00am 7.8 N 9 27 1009.9 - 0.6 - - - - - - -
02/07:30am 7.8 N 8 20 1010.0 - 0.6 - - - - - - -
02/07:00am 7.9 NNW 9 19 1010.0 - 0.6 - - - - - - -
02/06:30am 7.8 NNW 10 21 1010.1 - 0.6 - - - - - - -
02/06:00am 7.8 N 8 21 1010.2 - 0.6 - - - - - - -
02/05:30am 7.9 N 8 23 1010.2 - 0.6 - - - - - - -
02/05:09am 8.0 NW 15 25 1010.1 - 0.6 - - - - - - -
02/05:00am 8.1 W 6 21 1010.5 - 0.6 - - - - - - -
02/04:30am 8.1 NW 8 20 1010.7 - 0.6 - - - - - - -
02/04:00am 8.1 NW 14 28 1011.0 - 0.6 - - - - - - -
02/03:30am 8.3 NW 13 25 1011.3 - 0.6 - - - - - - -
02/03:00am 8.8 WNW 10 14 1012.0 - 0.6 - - - - - - -
02/02:30am 8.7 WNW 9 19 1012.1 - 0.6 - - - - - - -
02/02:00am 8.9 WNW 9 20 1012.2 - 0.6 - - - - - - -
02/01:30am 9.0 WNW 9 16 1012.5 - 0.6 - - - - - - -
02/01:00am 8.9 W 8 15 1012.7 - 0.6 - - - - - - -
02/12:30am 8.5 NW 12 21 1012.9 - 0.6 - - - - - - -
02/12:00am 8.4 WNW 10 17 1013.2 - 0.6 - - - - - - -

Other Formats:

Comma delimited format used in spreadsheet applications
http://www.bom.gov.au/fwo/IDT60701/IDT60701.94893.axf

JavaScript Object Notation format (JSON) in row-major order
http://www.bom.gov.au/fwo/IDT60701/IDT60701.94893.json